Skip Page Navigation
NASA JPL Caltech
NASA Logo - Jet Propulsion Laboratory + View the NASA Portal
+ Near-Earth Object (NEO) Program
Search JPL
JPL Home Earth Solar System Stars & Galaxies Technology
JPL Solar System Dynamics
BODIES ORBITS EPHEMERIDES TOOLS PHYSICAL DATA DISCOVERY FAQ SITE MAP
JPL Small-Body Database Browser
Search: [ help ]  
8217 Dominikhasek (1995 HC)
Classification: Main-belt Asteroid          SPK-ID: 2008217
Ephemeris | Orbit Diagram | Orbital Elements | Physical Parameters | Discovery Circumstances ]

[ show orbit diagram ]
Orbital Elements at Epoch 2456400.5 (2013-Apr-18.0) TDB
Reference: MPO234888 (heliocentric ecliptic J2000)
 Element Value Uncertainty (1-sigma)   Units 
e 0.1746728 n/a  
a 2.2497077 n/a AU
q 1.8567450 n/a AU
i 2.36740 n/a deg
node 179.74302 n/a deg
peri 134.42817 n/a deg
M 4.17255 n/a deg
tp 2456386.2147905
(2013-Apr-03.71479050)
n/a JED
period 1232.5018123
3.37
n/a
n/a
d
yr
n 0.29208882 n/a deg/d
Q 2.6426704 n/a AU
  Orbit Determination Parameters
   # obs. used (total)      775  
   first obs. used      1949-??-??  
   last obs. used      2012-07-23  
   # oppositions      14  
   planetary ephem.      DE403  
   condition code      0  
   fit RMS      0.54  
   data source      MPC:mpn  
   producer      MPCLINUX  

Additional Information
 T_jup = 3.607 

Ephemeris | Orbit Diagram | Orbital Elements | Physical Parameters | Discovery Circumstances ]

Physical Parameter Table
Parameter Symbol Value Units Sigma Reference Notes
absolute magnitude H 14.7 mag n/a PDS3 (MPC 31090)  

8217 Dominikhasek           Discovered 1995 Apr. 21 by P. Pravec and L. Sarounova at Ondrejov.
Named in honor of Dominik Hasek (b. 1965), goalkeeper, and the Czech Olympic hockey team, winners of the gold medal at the 1998 Winter Olympic Games in Nagano. Although the success was basically due to teamwork, Hasek's contribution was the most significant. This great win in "the hockey tournament of the century" was widely appreciated by the Czech people and recognized as one of the greatest achievements in the history of Czech sport.
NOTE: some special characters may not display properly (any characters within {} are an attempt to place the proper accent above a character)
Reference: 19980411/MPCPages.arcLast Updated: 2009-11-17

Alternate Designations
 1995 HC = 1996 RH5 
Ephemeris | Orbit Diagram | Orbital Elements | Physical Parameters | Discovery Circumstances ]
ABOUT SSD CREDITS/AWARDS PRIVACY/COPYRIGHT GLOSSARY LINKS
FirstGov 2013-May-25 14:54 UT
(server date/time)  
NASA Home Page
Site Manager:   Donald K. Yeomans
Webmaster  Alan B. Chamberlin